Tracking 29606 objects as of 19-Sep-2024
HD Live streaming from Space Station
objects crossing your sky now

STARLINK-5215

Track STARLINK-5215 now!
10-day predictions
STARLINK-5215 is classified as:


NORAD ID: 54759
Int'l Code: 2022-175B
Perigee: 545.7 km
Apogee: 548.1 km
Inclination: 53.2 °
Period: 95.4 minutes
Semi major axis: 6917 km
RCS: Unknown
Launch date: December 17, 2022
Source: United States (US)
Launch site: AIR FORCE EASTERN TEST RANGE (AFETR)
Your satellite tracking list
Your tracking list is empty




NASA's NSSDC Master Catalog

Two Line Element Set (TLE):
1 54759U 22175B   24262.46725578 -.00002805  00000-0 -15822-3 0  9995
2 54759  53.2143 291.0376 0001716  75.0144 285.1037 15.08840000 98889
Source of the keplerian elements: AFSPC